[[{"header":{"parameterUnit":"m.s-1","parameterCategory":2,"la1":30.2991,"la2":30.254,"lo1":-89.0895,"lo2":-89.0444,"dy":0.0017,"dx":0.0017,"nx":28,"ny":28,"refTime":"2023-08-25T03:00:00:Z","depth":"0","parameterNumber":2,"parameterNumberName":"U-component_of_CURRENTS"},"data":[0,0,0,0,0,0,0,0,0,0,0,0,0,0,0,0,0,0,0,0,0,0,0,0,0,0,0,0,0,0,0,0,0,0,0,0,0,0,0,0,0,0,0,0,0,0,0,0,0,0,0,0,0,0,0,0,0,0,-0.176,-0.1761,0,-0.1829,-0.1829,-0.183,-0.1736,-0.1733,-0.173,-0.1727,-0.1656,-0.1656,-0.1657,0,0,0,0,0,0,0,0,0,0,0,0,0,-0.1636,-0.1638,-0.176,-0.1761,-0.1763,-0.1829,-0.1829,-0.183,-0.1736,-0.1733,-0.1729,-0.1726,-0.1655,-0.1656,-0.1657,0,0,0,0,0,0,0,0,0,0,0,0,0,-0.1692,-0.1639,-0.176,-0.1727,-0.1725,-0.1829,-0.1829,-0.183,-0.1737,-0.1733,-0.1728,-0.1724,-0.1655,-0.1656,-0.1657,-0.1754,0,0,-0.1661,-0.1662,0,0,0,0,0,0,0,0,-0.1689,-0.1696,-0.1731,-0.173,-0.1728,-0.1773,-0.176,-0.1799,-0.1738,-0.1728,-0.1727,-0.1722,-0.1688,-0.1686,-0.1705,-0.1751,-0.1748,-0.1661,-0.1662,-0.1663,-0.1663,0,0,0,0,0,0,0,-0.1685,-0.1693,-0.1783,-0.1733,-0.1731,-0.174,-0.1741,-0.1768,-0.1726,-0.1729,-0.1723,-0.1739,-0.1685,-0.1704,-0.1702,-0.1747,-0.1661,-0.1663,-0.1663,-0.1664,-0.191,-0.1915,0,0,0,0,0,0,-0.1686,-0.169,-0.1781,-0.1785,-0.1702,-0.1746,-0.1747,-0.1759,-0.1729,-0.1722,-0.1743,-0.1735,-0.1704,-0.1701,-0.1699,-0.1828,-0.1663,-0.1664,-0.1665,-0.1904,-0.1911,-0.1917,0,0,0,0,0,0,-0.1683,-0.1694,-0.1778,-0.1742,-0.1754,-0.1752,-0.1767,-0.1763,-0.1771,-0.1742,-0.173,-0.1752,-0.17,-0.1697,-0.176,-0.1823,-0.1665,-0.1666,-0.1897,-0.1906,-0.1914,-0.2074,0,0,0,0,0,0,-0.1679,-0.1692,-0.1701,-0.1742,-0.1756,-0.1861,-0.1772,-0.1768,-0.179,-0.178,-0.1748,-0.1737,-0.1697,-0.1759,-0.1761,-0.1821,-0.1667,-0.189,-0.1901,-0.1911,-0.2062,-0.2087,-0.2109,0,0,0,0,0,-0.1675,-0.1708,-0.1701,-0.1713,-0.1769,-0.1866,-0.1875,-0.1854,-0.1795,-0.1836,-0.1823,-0.1737,-0.1828,-0.1766,-0.1767,-0.1828,-0.1885,-0.1898,-0.1911,-0.2051,-0.2082,-0.2109,0,0,0,0,0,0,-0.166,-0.1704,-0.1696,-0.1739,-0.1809,-0.1851,-0.1879,-0.1872,-0.1896,-0.187,-0.1816,-0.181,-0.1893,-0.1861,-0.1793,-0.194,-0.1842,-0.1856,-0.1949,-0.1977,-0.2001,-0.1941,-0.1668,0,0,0,0,0,-0.1668,-0.1691,-0.1759,-0.1795,-0.183,-0.1858,-0.1889,-0.1893,-0.1922,-0.1924,-0.1914,-0.1916,-0.1958,-0.1962,-0.1996,-0.2075,-0.1975,-0.212,-0.2144,-0.2164,-0.2124,-0.205,-0.206,-0.196,-0.196,-0.196,0,0,-0.1665,-0.1698,-0.1706,-0.1794,-0.1829,-0.1929,-0.1864,-0.1932,-0.2003,-0.1918,-0.1997,-0.2006,-0.2006,-0.2101,-0.2132,-0.2069,-0.2156,-0.2181,-0.2197,-0.2144,-0.2064,-0.2072,-0.2079,-0.1969,-0.1967,-0.1966,0,0,-0.1711,-0.1715,-0.1768,-0.185,-0.1937,-0.1972,-0.1999,-0.2071,-0.2081,-0.2191,-0.2147,-0.2189,-0.2259,-0.2263,-0.2273,-0.2454,-0.2296,-0.2479,-0.2527,-0.2459,-0.2463,-0.2466,-0.2389,-0.2383,-0.2474,-0.2474,-0.2475,0,-0.1711,-0.179,-0.1807,-0.1917,-0.1974,-0.2,-0.2098,-0.2157,-0.2241,-0.2235,-0.2236,-0.231,-0.2332,-0.2388,-0.2471,-0.2498,-0.2417,-0.241,-0.2479,-0.248,-0.2479,-0.2398,-0.2389,-0.2484,-0.2483,-0.2482,-0.2481,0,-0.1812,-0.1901,-0.1951,-0.2078,-0.2148,-0.2244,-0.2328,-0.2379,-0.239,-0.2417,-0.2477,-0.2519,-0.2523,-0.2586,-0.2591,-0.2621,-0.2554,-0.2523,-0.2381,-0.2496,-0.2408,-0.2395,-0.2497,-0.2494,-0.2491,-0.2489,0,0,-0.1767,-0.1974,-0.2,-0.2072,-0.2236,-0.2291,-0.2409,-0.2485,-0.2485,-0.2585,-0.2575,-0.2716,-0.2665,-0.2677,-0.2682,-0.2654,-0.2645,-0.2596,-0.2588,-0.2472,-0.2466,-0.2398,-0.2376,-0.2603,-0.2601,-0.26,-0.2417,0,-0.1848,-0.2045,-0.2127,-0.2301,-0.2402,-0.2455,-0.2539,-0.2599,-0.2626,-0.2636,-0.2651,-0.2679,-0.2724,-0.2714,-0.2707,-0.2656,-0.2613,-0.2695,-0.2409,-0.24,-0.2285,-0.236,-0.2268,-0.2093,-0.2403,-0.2401,-0.2399,0,-0.1933,-0.2049,-0.2223,-0.2367,-0.2403,-0.2493,-0.2527,-0.2616,-0.2639,-0.2645,-0.2649,-0.2643,-0.2664,-0.2669,-0.2591,-0.263,-0.2558,-0.251,-0.2501,-0.2349,-0.2307,-0.2026,-0.2057,-0.2055,-0.2378,-0.238,-0.2381,0,-0.1874,-0.2109,-0.2218,-0.2293,-0.2466,-0.2489,-0.2546,-0.2589,-0.2601,-0.2622,-0.2593,-0.2606,-0.2575,-0.2522,-0.2479,-0.2513,-0.2334,-0.2358,-0.2214,-0.2207,-0.2024,-0.2005,-0.1965,-0.2248,-0.2248,-0.2249,-0.2249,0,-0.1934,-0.2026,-0.2192,-0.2265,-0.2314,-0.2442,-0.2458,-0.2501,-0.2529,-0.2499,-0.2571,-0.2514,-0.2528,-0.2446,-0.242,-0.2271,-0.2277,-0.2201,-0.215,-0.209,-0.2079,-0.1982,-0.2022,-0.2242,-0.2244,-0.2245,-0.2246,0,-0.1872,-0.2014,-0.2122,-0.2272,-0.2303,-0.2321,-0.2402,-0.2392,-0.245,-0.2404,-0.2404,-0.2409,-0.2315,-0.2298,-0.218,-0.2156,-0.2007,-0.198,-0.1915,-0.186,-0.1766,-0.1819,-0.1665,-0.1619,-0.1803,-0.18,-0.1798,0,-0.1863,-0.1924,-0.206,-0.2079,-0.2146,-0.2201,-0.2212,-0.232,-0.2307,-0.2311,-0.2251,-0.2188,-0.21,-0.1942,-0.1884,-0.1783,-0.1826,-0.164,-0.1714,-0.1729,-0.175,-0.1801,-0.178,-0.1548,-0.1544,-0.1541,-0.1538,0,-0.1793,-0.1826,-0.1888,-0.1943,-0.1972,-0.2004,-0.204,-0.2035,-0.2116,-0.2087,-0.2009,-0.1953,-0.1815,-0.1682,-0.1582,-0.1524,-0.1625,-0.1564,-0.158,-0.1543,-0.1588,-0.1528,-0.1711,-0.1507,-0.151,-0.1512,-0.1514,-0.1515,-0.1669,-0.1667,-0.1737,-0.1767,-0.1797,-0.1798,-0.1774,-0.1817,-0.1798,-0.1749,-0.175,-0.1635,-0.1558,-0.1413,-0.1353,-0.1263,-0.135,-0.1253,-0.131,-0.1356,-0.1335,-0.1457,-0.1208,-0.1209,-0.121,-0.1211,-0.1212,0,-0.1523,-0.1542,-0.1558,-0.1599,-0.1571,-0.164,-0.1633,-0.1591,-0.1536,-0.1512,-0.1443,-0.1328,-0.121,-0.1179,-0.1104,-0.1048,-0.1049,-0.1039,-0.1101,-0.1087,-0.1162,-0.1177,-0.0908,-0.0908,-0.0908,-0.0908,-0.0908,-0.0909,-0.1449,-0.1415,-0.1441,-0.1376,-0.1383,-0.1317,-0.1285,-0.1243,-0.1213,-0.1109,-0.1048,-0.0989,-0.1008,-0.1124,-0.1053,-0.0993,-0.1004,-0.0946,-0.1001,-0.1092,-0.1118,-0.1143,-0.1166,-0.09,-0.09,-0.0867,-0.0867,-0.0867]},{"header":{"parameterUnit":"m.s-1","parameterCategory":2,"la1":30.2991,"la2":30.254,"lo1":-89.0895,"lo2":-89.0444,"dy":0.0017,"dx":0.0017,"nx":28,"ny":28,"refTime":"2023-08-25T03:00:00:Z","depth":"0","parameterNumber":3,"parameterNumberName":"V-component_of_CURRENTS"},"data":[0,0,0,0,0,0,0,0,0,0,0,0,0,0,0,0,0,0,0,0,0,0,0,0,0,0,0,0,0,0,0,0,0,0,0,0,0,0,0,0,0,0,0,0,0,0,0,0,0,0,0,0,0,0,0,0,0,0,0.0413,0.0414,0,0.0461,0.0462,0.0462,0.0529,0.053,0.0531,0.0532,0.0594,0.0595,0.0595,0,0,0,0,0,0,0,0,0,0,0,0,0,0.0398,0.0398,0.0413,0.0414,0.0414,0.0461,0.0462,0.0462,0.0529,0.053,0.0531,0.0532,0.0594,0.0594,0.0595,0,0,0,0,0,0,0,0,0,0,0,0,0,0.0422,0.0398,0.0413,0.0452,0.0456,0.0461,0.0462,0.0463,0.0528,0.053,0.0532,0.0533,0.0593,0.0594,0.0595,0.057,0,0,0.0598,0.0599,0,0,0,0,0,0,0,0,0.042,0.0422,0.0446,0.045,0.0454,0.049,0.0479,0.0499,0.0528,0.0502,0.0532,0.0534,0.0559,0.0563,0.0569,0.0573,0.0575,0.0598,0.0599,0.06,0.06,0,0,0,0,0,0,0,0.0419,0.0421,0.0433,0.0446,0.0451,0.0474,0.0479,0.0483,0.0522,0.0504,0.0509,0.0513,0.0561,0.0568,0.0571,0.0576,0.0598,0.0599,0.06,0.06,0.0608,0.0608,0,0,0,0,0,0,0.0408,0.0419,0.0431,0.0434,0.044,0.0473,0.0479,0.0477,0.0521,0.0529,0.0511,0.0515,0.0565,0.057,0.0573,0.0563,0.0599,0.06,0.0601,0.0609,0.0608,0.0608,0,0,0,0,0,0,0.0408,0.0409,0.0429,0.0428,0.0432,0.0471,0.047,0.0477,0.0483,0.0526,0.0535,0.0509,0.0567,0.0572,0.0576,0.0565,0.0601,0.0602,0.0609,0.0609,0.0608,0.053,0,0,0,0,0,0,0.0407,0.0408,0.0395,0.0427,0.0431,0.0408,0.0468,0.0477,0.0483,0.0489,0.0527,0.0535,0.0568,0.0574,0.0577,0.0567,0.0603,0.061,0.0609,0.0608,0.0533,0.0527,0.0522,0,0,0,0,0,0.0406,0.0367,0.0394,0.0396,0.0415,0.0406,0.0409,0.0445,0.0481,0.0461,0.0504,0.0533,0.0572,0.0573,0.0577,0.0568,0.061,0.0609,0.0608,0.0536,0.0528,0.0522,0,0,0,0,0,0,0.0344,0.0371,0.0402,0.0372,0.0384,0.0417,0.0394,0.0433,0.045,0.0458,0.0516,0.0525,0.0529,0.0554,0.0555,0.0571,0.06,0.06,0.0544,0.0537,0.0532,0.0533,0.0603,0,0,0,0,0,0.0327,0.031,0.0344,0.0316,0.0317,0.0358,0.0359,0.0386,0.041,0.042,0.0457,0.0496,0.0526,0.0536,0.0558,0.0551,0.0592,0.0553,0.0548,0.0542,0.0547,0.0606,0.0606,0.0605,0.0605,0.0605,0,0,0.0295,0.0306,0.0297,0.0303,0.0314,0.0298,0.0361,0.0345,0.0353,0.0421,0.0428,0.0468,0.052,0.0525,0.053,0.0545,0.0558,0.0541,0.0536,0.0544,0.0605,0.0606,0.0606,0.0604,0.0605,0.0605,0,0,0.0206,0.023,0.0184,0.019,0.0199,0.0233,0.0227,0.0258,0.0289,0.0295,0.0364,0.0399,0.0423,0.0475,0.0502,0.0474,0.0525,0.048,0.045,0.0506,0.0507,0.0508,0.0534,0.0538,0.0478,0.0478,0.0478,0,0.0166,0.0127,0.0165,0.0125,0.0135,0.0201,0.017,0.0199,0.0236,0.027,0.0282,0.0372,0.0405,0.0457,0.0451,0.0461,0.0493,0.0469,0.0499,0.0501,0.0504,0.053,0.0536,0.0474,0.0474,0.0475,0.0475,0,0.0055,0.0027,-0.0007,-0.0012,0.0002,-0.0026,0.0039,0.006,0.0115,0.0166,0.0222,0.028,0.0345,0.0358,0.0392,0.0436,0.0451,0.0482,0.0514,0.0499,0.0527,0.0535,0.0468,0.047,0.0471,0.0472,0,0,-0.0037,-0.0076,-0.0087,-0.0086,-0.0065,-0.0054,-0.0041,0.0013,0.0055,0.0095,0.0155,0.0208,0.0268,0.0304,0.0365,0.0411,0.0442,0.0446,0.0451,0.0467,0.0546,0.0531,0.0538,0.0481,0.0483,0.0484,0.0549,0,-0.0131,-0.0228,-0.02,-0.024,-0.0268,-0.0177,-0.0153,-0.0085,-0.0013,0.0055,0.0147,0.0213,0.0242,0.0286,0.0331,0.0433,0.0463,0.042,0.0564,0.0568,0.0553,0.0547,0.0578,0.0637,0.0556,0.0557,0.0558,0,-0.0241,-0.0279,-0.0359,-0.0316,-0.0312,-0.0305,-0.0201,-0.0168,-0.0054,0.0004,0.0085,0.017,0.0259,0.0284,0.042,0.0393,0.0453,0.0517,0.0522,0.0545,0.0567,0.0646,0.0654,0.0788,0.057,0.0569,0.0569,0,-0.0317,-0.0365,-0.0418,-0.0419,-0.0381,-0.0352,-0.0297,-0.0191,-0.0121,-0.0014,0.0047,0.0154,0.0233,0.0324,0.0434,0.0441,0.0572,0.0605,0.0639,0.0638,0.0712,0.0715,0.0868,0.0682,0.0682,0.0682,0.0682,0,-0.042,-0.0451,-0.0456,-0.0486,-0.0474,-0.0408,-0.0344,-0.0282,-0.0162,-0.0077,0.0023,0.0102,0.0251,0.0348,0.0429,0.0545,0.0566,0.0634,0.0661,0.0681,0.068,0.0839,0.089,0.0684,0.0684,0.0683,0.0683,0,-0.0503,-0.0531,-0.0572,-0.0549,-0.0525,-0.0508,-0.0369,-0.03,-0.0208,-0.0095,-0.0056,0.0088,0.0206,0.0326,0.0481,0.0549,0.0731,0.068,0.0671,0.0695,0.0862,0.0905,0.1056,0.1134,0.0755,0.0755,0.0755,0,-0.0556,-0.0609,-0.0619,-0.0609,-0.0597,-0.0538,-0.0468,-0.0346,-0.0258,-0.0105,-0.0049,0.0081,0.0164,0.0358,0.0513,0.0645,0.0741,0.0748,0.0771,0.0875,0.0945,0.0968,0.1025,0.0834,0.0834,0.0835,0.0836,0,-0.0629,-0.0648,-0.0673,-0.0679,-0.063,-0.0545,-0.0444,-0.0389,-0.0234,-0.0163,-0.007,-0.0008,0.0193,0.037,0.0547,0.0631,0.0854,0.0764,0.0904,0.104,0.1048,0.1134,0.0762,0.0841,0.084,0.084,0.084,0.0839,-0.0651,-0.069,-0.0727,-0.0711,-0.0651,-0.0553,-0.049,-0.0386,-0.0294,-0.017,-0.012,0.0008,0.0287,0.0547,0.0658,0.0938,0.0908,0.1028,0.1076,0.1092,0.1163,0.077,0.0855,0.0855,0.0854,0.0854,0.0854,0,-0.0663,-0.0706,-0.0722,-0.0696,-0.062,-0.0578,-0.0454,-0.0392,-0.0323,-0.0185,-0.0126,0.0205,0.046,0.0751,0.1109,0.1259,0.1315,0.1326,0.1408,0.1457,0.1154,0.1155,0.1269,0.1269,0.1269,0.1269,0.1269,0.1268,-0.0668,-0.0715,-0.0738,-0.066,-0.0613,-0.0497,-0.0434,-0.0391,-0.0285,-0.0099,0.0126,0.0315,0.0706,0.1214,0.1557,0.1587,0.1755,0.1703,0.179,0.1622,0.16,0.1578,0.1594,0.1798,0.1799,0.2101,0.2104,0.2106]}],[{"header":{"parameterUnit":"m.s-1","parameterCategory":2,"la1":30.2991,"la2":30.254,"lo1":-89.0895,"lo2":-89.0444,"dy":0.0017,"dx":0.0017,"nx":28,"ny":28,"refTime":"2023-08-25T03:00:00:Z","depth":"2","parameterNumber":2,"parameterNumberName":"U-component_of_CURRENTS"},"data":[0,0,0,0,0,0,0,0,0,0,0,0,0,0,0,0,0,0,0,0,0,0,0,0,0,0,0,0,0,0,0,0,0,0,0,0,0,0,0,0,0,0,0,0,0,0,0,0,0,0,0,0,0,0,0,0,0,0,-0.2612,-0.2612,0,-0.2564,-0.2563,-0.2562,-0.2502,-0.2502,-0.2501,-0.2501,-0.2314,-0.2309,-0.2305,0,0,0,0,0,0,0,0,0,0,0,0,0,-0.2507,-0.2509,-0.2612,-0.2612,-0.2612,-0.2564,-0.2563,-0.2562,-0.2503,-0.2502,-0.2501,-0.2501,-0.2315,-0.231,-0.2305,0,0,0,0,0,0,0,0,0,0,0,0,0,-0.2511,-0.251,-0.2612,-0.2579,-0.2576,-0.2564,-0.2563,-0.2562,-0.2503,-0.2502,-0.2501,-0.25,-0.2317,-0.231,-0.2304,-0.2279,0,0,-0.2283,-0.228,0,0,0,0,0,0,0,0,-0.2511,-0.2515,-0.2584,-0.2582,-0.2578,-0.2542,-0.2458,-0.2462,-0.2503,-0.2526,-0.2501,-0.25,-0.2381,-0.2369,-0.2357,-0.2271,-0.2263,-0.2283,-0.2279,-0.2276,-0.2274,0,0,0,0,0,0,0,-0.2511,-0.2516,-0.2589,-0.2584,-0.2581,-0.2517,-0.2518,-0.2458,-0.2453,-0.2524,-0.2521,-0.2522,-0.2377,-0.2364,-0.2352,-0.226,-0.2283,-0.2277,-0.2273,-0.227,-0.2201,-0.2203,0,0,0,0,0,0,-0.2535,-0.2517,-0.259,-0.2588,-0.2547,-0.2521,-0.2521,-0.2551,-0.2456,-0.2444,-0.2523,-0.252,-0.2376,-0.236,-0.2345,-0.2359,-0.2276,-0.227,-0.2266,-0.2199,-0.2202,-0.2204,0,0,0,0,0,0,-0.2533,-0.2543,-0.2592,-0.2552,-0.2554,-0.2525,-0.2558,-0.2551,-0.2528,-0.2458,-0.2441,-0.2507,-0.2375,-0.2355,-0.2309,-0.2349,-0.2267,-0.2261,-0.2197,-0.22,-0.2203,-0.2356,0,0,0,0,0,0,-0.2531,-0.2544,-0.2571,-0.2555,-0.2558,-0.2613,-0.2559,-0.2551,-0.2533,-0.2528,-0.2439,-0.2422,-0.2372,-0.232,-0.2303,-0.2339,-0.2255,-0.2194,-0.2198,-0.2202,-0.2348,-0.2364,-0.2377,0,0,0,0,0,-0.2528,-0.2577,-0.2573,-0.2582,-0.2599,-0.2615,-0.2611,-0.2581,-0.2533,-0.255,-0.2484,-0.2424,-0.2334,-0.2316,-0.2295,-0.233,-0.2192,-0.2197,-0.2202,-0.2341,-0.2361,-0.2377,0,0,0,0,0,0,-0.2539,-0.2576,-0.2571,-0.2627,-0.2632,-0.2607,-0.2612,-0.258,-0.254,-0.2515,-0.2434,-0.2415,-0.2405,-0.234,-0.2322,-0.2326,-0.2259,-0.226,-0.2373,-0.239,-0.2405,-0.2383,-0.225,0,0,0,0,0,-0.2559,-0.2607,-0.262,-0.2661,-0.2666,-0.2632,-0.2628,-0.2608,-0.2572,-0.2552,-0.2488,-0.2429,-0.2411,-0.2377,-0.2347,-0.2321,-0.2234,-0.2337,-0.2352,-0.2365,-0.2336,-0.2253,-0.2256,-0.222,-0.222,-0.222,0,0,-0.2567,-0.2598,-0.262,-0.2666,-0.2655,-0.2652,-0.2626,-0.2628,-0.2628,-0.2535,-0.25,-0.2475,-0.242,-0.2424,-0.2411,-0.2367,-0.2338,-0.2371,-0.2382,-0.2345,-0.2258,-0.2261,-0.2263,-0.2224,-0.2223,-0.2222,0,0,-0.2585,-0.264,-0.2665,-0.2675,-0.2682,-0.2675,-0.2675,-0.2651,-0.2654,-0.2633,-0.2587,-0.2579,-0.2512,-0.2503,-0.2485,-0.2551,-0.2431,-0.255,-0.2585,-0.2507,-0.2508,-0.2508,-0.2432,-0.2424,-0.2542,-0.2543,-0.2543,0,-0.2567,-0.261,-0.2671,-0.2679,-0.2671,-0.268,-0.2664,-0.2689,-0.2652,-0.2633,-0.264,-0.2573,-0.2554,-0.2547,-0.2603,-0.2583,-0.2505,-0.2526,-0.2524,-0.2521,-0.2518,-0.244,-0.2428,-0.255,-0.255,-0.2549,-0.2548,0,-0.2569,-0.2604,-0.2617,-0.2633,-0.266,-0.2647,-0.269,-0.2695,-0.2688,-0.2678,-0.2683,-0.2689,-0.2629,-0.2671,-0.2661,-0.2652,-0.2595,-0.2565,-0.2475,-0.2531,-0.2446,-0.2431,-0.2562,-0.2559,-0.2557,-0.2555,0,0,-0.2486,-0.2584,-0.2581,-0.2586,-0.2616,-0.2633,-0.2664,-0.2667,-0.2647,-0.2682,-0.2645,-0.2717,-0.2701,-0.2684,-0.2695,-0.2667,-0.264,-0.2616,-0.2608,-0.2532,-0.2448,-0.2382,-0.2358,-0.2595,-0.2593,-0.2591,-0.2408,0,-0.2423,-0.2436,-0.251,-0.251,-0.2508,-0.2553,-0.2586,-0.2612,-0.2627,-0.261,-0.2662,-0.2653,-0.2719,-0.271,-0.2701,-0.2653,-0.2601,-0.269,-0.2409,-0.24,-0.2327,-0.2339,-0.2213,-0.2034,-0.2392,-0.239,-0.2388,0,-0.2367,-0.2384,-0.2378,-0.2446,-0.2448,-0.2466,-0.2476,-0.2513,-0.2531,-0.2542,-0.2547,-0.2564,-0.2588,-0.2624,-0.2551,-0.2596,-0.2523,-0.2488,-0.2479,-0.2337,-0.2305,-0.203,-0.1993,-0.2362,-0.2364,-0.2366,-0.2367,0,-0.226,-0.2298,-0.2292,-0.23,-0.2373,-0.2387,-0.2423,-0.2461,-0.2475,-0.249,-0.2464,-0.2485,-0.2485,-0.2432,-0.2417,-0.2456,-0.2288,-0.2314,-0.2174,-0.2168,-0.1962,-0.1941,-0.2194,-0.2195,-0.2195,-0.2195,-0.2196,0,-0.2156,-0.2159,-0.2246,-0.2236,-0.2242,-0.2328,-0.2319,-0.2368,-0.2379,-0.2357,-0.2429,-0.2397,-0.2431,-0.2364,-0.2343,-0.2214,-0.2213,-0.2156,-0.2106,-0.2018,-0.2006,-0.2205,-0.2209,-0.2189,-0.219,-0.2191,-0.2193,0,-0.2058,-0.2107,-0.212,-0.218,-0.2209,-0.2223,-0.2278,-0.2243,-0.2299,-0.2265,-0.227,-0.2294,-0.2223,-0.2218,-0.211,-0.2095,-0.1993,-0.1925,-0.1833,-0.1777,-0.1944,-0.1958,-0.1754,-0.175,-0.1746,-0.1743,-0.1741,0,-0.1992,-0.199,-0.2073,-0.2082,-0.2115,-0.2138,-0.2131,-0.2199,-0.216,-0.2188,-0.2142,-0.2101,-0.2027,-0.1879,-0.1827,-0.1717,-0.1816,-0.1546,-0.1616,-0.1921,-0.1894,-0.1914,-0.1932,-0.1409,-0.1404,-0.14,-0.1397,0,-0.1853,-0.1913,-0.1931,-0.1944,-0.1957,-0.196,-0.1965,-0.1926,-0.1973,-0.1957,-0.1901,-0.1856,-0.1749,-0.1598,-0.1495,-0.1433,-0.1578,-0.146,-0.1734,-0.1566,-0.1588,-0.1565,-0.1595,-0.1361,-0.1365,-0.1367,-0.1369,-0.1371,-0.1757,-0.1743,-0.1765,-0.1781,-0.1789,-0.1743,-0.1693,-0.1681,-0.1627,-0.1583,-0.1627,-0.1534,-0.1524,-0.1297,-0.1206,-0.1161,-0.128,-0.1259,-0.1274,-0.1293,-0.1311,-0.1328,-0.1055,-0.1057,-0.1059,-0.106,-0.1061,0,-0.1583,-0.1585,-0.1576,-0.1573,-0.15,-0.1579,-0.153,-0.1449,-0.1343,-0.1346,-0.1297,-0.1145,-0.1034,-0.1032,-0.0903,-0.0882,-0.0904,-0.0856,-0.0901,-0.0936,-0.0967,-0.0973,-0.0625,-0.0623,-0.0622,-0.0621,0,0,-0.1492,-0.1411,-0.1408,-0.1259,-0.1262,-0.1143,-0.1099,-0.1049,-0.1021,-0.0923,-0.0893,-0.0959,-0.0988,-0.0808,-0.0764,-0.0673,-0.0797,-0.0633,-0.098,-0.1067,-0.1097,-0.1191,-0.1237,0,0,0,0,0]},{"header":{"parameterUnit":"m.s-1","parameterCategory":2,"la1":30.2991,"la2":30.254,"lo1":-89.0895,"lo2":-89.0444,"dy":0.0017,"dx":0.0017,"nx":28,"ny":28,"refTime":"2023-08-25T03:00:00:Z","depth":"2","parameterNumber":3,"parameterNumberName":"V-component_of_CURRENTS"},"data":[0,0,0,0,0,0,0,0,0,0,0,0,0,0,0,0,0,0,0,0,0,0,0,0,0,0,0,0,0,0,0,0,0,0,0,0,0,0,0,0,0,0,0,0,0,0,0,0,0,0,0,0,0,0,0,0,0,0,-0.0102,-0.0101,0,-0.002,-0.0019,-0.0018,-0.0035,-0.0037,-0.0038,-0.0039,-0.0003,-0.0001,0.0001,0,0,0,0,0,0,0,0,0,0,0,0,0,-0.0268,-0.0265,-0.0103,-0.0101,-0.01,-0.002,-0.0019,-0.0018,-0.0035,-0.0037,-0.0038,-0.0039,-0.0004,-0.0002,0.0001,0,0,0,0,0,0,0,0,0,0,0,0,0,-0.0195,-0.0264,-0.0103,-0.0096,-0.0094,-0.002,-0.0019,-0.0018,-0.0035,-0.0037,-0.0039,-0.004,-0.0005,-0.0002,0.0001,0.0055,0,0,0.001,0.0012,0,0,0,0,0,0,0,0,-0.0199,-0.019,-0.0098,-0.0096,-0.0094,-0.0036,-0.0064,0.0006,-0.0035,-0.0061,-0.0039,-0.0041,-0.0015,-0.0011,0.0004,0.0057,0.0058,0.0011,0.0013,0.0014,0.0015,0,0,0,0,0,0,0,-0.0204,-0.0193,-0.0074,-0.0096,-0.0094,-0.0094,-0.0086,-0.0051,-0.0033,-0.0059,-0.0059,-0.0043,-0.0015,0.0001,0.0004,0.0059,0.0011,0.0013,0.0015,0.0016,0.0191,0.0194,0,0,0,0,0,0,-0.0204,-0.0197,-0.0076,-0.0071,-0.0148,-0.0089,-0.0081,-0.0056,-0.0033,-0.0029,-0.0042,-0.0044,-0.0004,0.0001,0.0005,0.0059,0.0014,0.0017,0.0018,0.0189,0.0192,0.0195,0,0,0,0,0,0,-0.0208,-0.0194,-0.0079,-0.013,-0.0115,-0.0084,-0.0057,-0.0054,-0.0038,-0.0018,-0.0017,-0.003,-0.0005,0.0001,0.0048,0.006,0.0018,0.0021,0.0185,0.019,0.0193,0.0174,0,0,0,0,0,0,-0.0213,-0.0196,-0.0183,-0.013,-0.0112,-0.0031,-0.0054,-0.005,-0.0023,-0.0026,-0.0006,-0.0005,-0.0006,0.0043,0.0051,0.0064,0.0023,0.0182,0.0187,0.0192,0.0171,0.0177,0.0182,0,0,0,0,0,-0.0219,-0.019,-0.0182,-0.0168,-0.0093,-0.003,-0.0021,-0.0008,-0.0021,-0.0004,0.0013,-0.0006,0.0082,0.0048,0.0056,0.007,0.0179,0.0186,0.0192,0.0168,0.0176,0.0182,0,0,0,0,0,0,-0.0263,-0.0186,-0.0178,-0.013,-0.0082,-0.0031,-0.0011,0.0001,0.0029,0.0023,0.0028,0.0032,0.0081,0.0096,0.0059,0.0145,0.013,0.0138,0.011,0.0117,0.0122,0.0079,0.0026,0,0,0,0,0,-0.0262,-0.0219,-0.0152,-0.0117,-0.0089,-0.0049,-0.0024,-0.0008,0.0028,0.0037,0.0053,0.0082,0.0119,0.013,0.0169,0.0213,0.0214,0.0235,0.024,0.0244,0.0221,0.0252,0.0256,0.0216,0.0216,0.0216,0,0,-0.0276,-0.0223,-0.0204,-0.0124,-0.0088,-0.007,-0.0039,0.001,0.0019,0.004,0.006,0.0106,0.0141,0.0187,0.021,0.0193,0.0263,0.0252,0.0254,0.0228,0.0259,0.0262,0.0265,0.022,0.0219,0.0219,0,0,-0.0291,-0.0226,-0.0208,-0.0166,-0.0098,-0.0067,-0.0053,0.001,0.0038,0.0083,0.0101,0.0153,0.0204,0.0229,0.0246,0.0314,0.0298,0.0339,0.0314,0.0346,0.0348,0.0349,0.0364,0.0367,0.0331,0.0331,0.0331,0,-0.0323,-0.0286,-0.0195,-0.0174,-0.0158,-0.0075,-0.0078,-0.0023,0.0042,0.0062,0.0085,0.0179,0.0217,0.0257,0.0282,0.0318,0.0328,0.0274,0.0346,0.0348,0.0349,0.0365,0.0368,0.0331,0.0331,0.0331,0.0331,0,-0.0335,-0.0314,-0.0293,-0.0251,-0.0212,-0.0185,-0.0107,-0.0061,-0.0016,0.0023,0.0103,0.0184,0.0222,0.0268,0.0289,0.0333,0.0334,0.0351,0.031,0.0351,0.0367,0.037,0.033,0.033,0.033,0.033,0,0,-0.0403,-0.0327,-0.0325,-0.0323,-0.0253,-0.0218,-0.0183,-0.013,-0.0113,-0.0012,0.0009,0.0121,0.0173,0.02,0.0264,0.0305,0.0344,0.0326,0.0328,0.0306,0.0399,0.0405,0.041,0.0367,0.0367,0.0368,0.0405,0,-0.046,-0.0459,-0.0397,-0.0407,-0.0405,-0.032,-0.0294,-0.0227,-0.0158,-0.0103,0.0016,0.0074,0.0147,0.0182,0.0236,0.0324,0.0352,0.0331,0.0392,0.0393,0.0365,0.0414,0.0401,0.0434,0.0409,0.0409,0.041,0,-0.0508,-0.05,-0.0529,-0.0484,-0.0472,-0.0463,-0.0409,-0.0364,-0.0263,-0.0205,-0.0126,-0.0035,0.0063,0.0124,0.026,0.0241,0.0304,0.0373,0.0376,0.0382,0.0407,0.0393,0.0442,0.0416,0.0415,0.0415,0.0414,0,-0.0608,-0.0586,-0.0616,-0.0605,-0.0546,-0.0536,-0.0495,-0.0412,-0.0364,-0.0269,-0.0232,-0.0111,-0.0026,0.0072,0.0228,0.0237,0.0367,0.0393,0.0453,0.0453,0.0453,0.0452,0.0457,0.0457,0.0457,0.0457,0.0456,0,-0.0689,-0.0705,-0.0662,-0.0675,-0.0689,-0.0611,-0.0596,-0.054,-0.0454,-0.0406,-0.0285,-0.0219,-0.0033,0.0077,0.0191,0.0336,0.0333,0.0444,0.0466,0.0451,0.045,0.044,0.0437,0.0458,0.0458,0.0457,0.0457,0,-0.0782,-0.0763,-0.0791,-0.0754,-0.0738,-0.0743,-0.0658,-0.0637,-0.0547,-0.0483,-0.0452,-0.0294,-0.0141,0.0028,0.0202,0.0297,0.0424,0.0464,0.0428,0.0445,0.0494,0.049,0.0532,0.0533,0.0533,0.0534,0.0534,0,-0.0824,-0.0852,-0.0856,-0.0869,-0.0852,-0.0828,-0.0807,-0.0708,-0.0673,-0.0522,-0.05,-0.0337,-0.0205,0.0049,0.0238,0.042,0.0432,0.0491,0.0512,0.0485,0.0503,0.0499,0.0495,0.051,0.051,0.051,0.0511,0,-0.0897,-0.0907,-0.0927,-0.0961,-0.0961,-0.0949,-0.0902,-0.0884,-0.0751,-0.0679,-0.0545,-0.0427,-0.0157,0.007,0.0298,0.0397,0.0465,0.0499,0.0488,0.0491,0.0468,0.0483,0.048,0.0512,0.0511,0.0511,0.0511,0.0511,-0.0944,-0.0981,-0.1004,-0.103,-0.1042,-0.104,-0.1014,-0.0947,-0.0875,-0.0704,-0.0594,-0.0366,-0.0148,0.0209,0.0356,0.0495,0.0498,0.0541,0.0539,0.0538,0.0527,0.0506,0.0554,0.0554,0.0554,0.0554,0.0554,0,-0.0974,-0.1004,-0.1047,-0.1074,-0.1086,-0.108,-0.1045,-0.0986,-0.0887,-0.0715,-0.054,-0.0266,-0.0011,0.0207,0.0439,0.0562,0.0556,0.0569,0.0549,0.0547,0.0545,0.0533,0.0563,0.0563,0.0563,0.0564,0,0,-0.0986,-0.1025,-0.1045,-0.1078,-0.1095,-0.109,-0.1067,-0.0979,-0.0844,-0.0651,-0.0456,-0.0217,0.0036,0.0203,0.0357,0.0472,0.047,0.0471,0.0451,0.0406,0.0403,0.0516,0.0494,0,0,0,0,0]}],[{"header":{"parameterUnit":"m.s-1","parameterCategory":2,"la1":30.2991,"la2":30.254,"lo1":-89.0895,"lo2":-89.0444,"dy":0.0017,"dx":0.0017,"nx":28,"ny":28,"refTime":"2023-08-25T03:00:00:Z","depth":"4","parameterNumber":2,"parameterNumberName":"U-component_of_CURRENTS"},"data":[0,0,0,0,0,0,0,0,0,0,0,0,0,0,0,0,0,0,0,0,0,0,0,0,0,0,0,0,0,0,0,0,0,0,0,0,0,0,0,0,0,0,0,0,0,0,0,0,0,0,0,0,0,0,0,0,0,0,-0.1009,-0.1009,0,-0.1032,-0.1032,-0.1032,-0.105,-0.105,-0.1051,-0.1051,-0.1084,-0.1085,-0.1086,0,0,0,0,0,0,0,0,0,0,0,0,0,-0.0955,-0.0956,-0.1009,-0.1009,-0.1009,-0.1032,-0.1032,-0.1032,-0.105,-0.105,-0.1051,-0.1051,-0.1084,-0.1085,-0.1086,0,0,0,0,0,0,0,0,0,0,0,0,0,-0.0977,-0.0956,-0.1008,-0.1022,-0.1023,-0.1032,-0.1032,-0.1032,-0.105,-0.105,-0.1051,-0.1051,-0.1084,-0.1085,-0.1086,-0.1083,0,0,-0.1089,-0.1089,0,0,0,0,0,0,0,0,-0.0976,-0.0979,-0.1019,-0.1021,-0.1023,-0.104,-0.1026,-0.105,-0.105,-0.1039,-0.1051,-0.1051,-0.1071,-0.1073,-0.1074,-0.1085,-0.1086,-0.1089,-0.1089,-0.109,-0.109,0,0,0,0,0,0,0,-0.0975,-0.0978,-0.1017,-0.102,-0.1022,-0.1018,-0.1022,-0.103,-0.1051,-0.104,-0.1041,-0.1046,-0.1072,-0.1073,-0.1075,-0.1087,-0.1089,-0.1089,-0.109,-0.109,-0.1197,-0.1199,0,0,0,0,0,0,-0.0975,-0.0977,-0.1016,-0.1017,-0.1001,-0.1019,-0.1023,-0.1033,-0.1051,-0.1055,-0.1045,-0.1046,-0.1072,-0.1074,-0.1077,-0.1144,-0.109,-0.1091,-0.1091,-0.1195,-0.1198,-0.12,0,0,0,0,0,0,-0.0974,-0.0979,-0.1015,-0.0998,-0.1003,-0.102,-0.103,-0.1033,-0.1049,-0.1055,-0.1059,-0.106,-0.1072,-0.1075,-0.1111,-0.1143,-0.1091,-0.1092,-0.1192,-0.1196,-0.1199,-0.1236,0,0,0,0,0,0,-0.0972,-0.0978,-0.0992,-0.0998,-0.1004,-0.1028,-0.103,-0.1033,-0.1051,-0.1053,-0.1069,-0.1072,-0.1073,-0.111,-0.1112,-0.1144,-0.1093,-0.1189,-0.1194,-0.1198,-0.1231,-0.124,-0.1247,0,0,0,0,0,-0.097,-0.0983,-0.0993,-0.0998,-0.102,-0.1029,-0.1031,-0.1043,-0.1051,-0.1059,-0.1084,-0.1072,-0.1139,-0.1112,-0.1114,-0.1147,-0.1187,-0.1193,-0.1197,-0.1228,-0.1238,-0.1247,0,0,0,0,0,0,-0.0964,-0.0986,-0.0997,-0.1016,-0.1027,-0.1032,-0.1047,-0.1051,-0.1075,-0.1084,-0.1091,-0.1096,-0.1146,-0.1144,-0.1114,-0.1195,-0.1165,-0.1171,-0.1188,-0.1197,-0.1205,-0.1204,-0.1093,0,0,0,0,0,-0.097,-0.0992,-0.1003,-0.1022,-0.1031,-0.1042,-0.105,-0.1055,-0.1073,-0.1084,-0.1105,-0.1133,-0.1166,-0.1178,-0.1205,-0.1235,-0.1225,-0.1264,-0.1272,-0.1278,-0.1282,-0.1305,-0.1315,-0.1217,-0.1217,-0.1217,0,0,-0.0974,-0.099,-0.1003,-0.1023,-0.1037,-0.1058,-0.1048,-0.1064,-0.1088,-0.1084,-0.1137,-0.1161,-0.1183,-0.123,-0.1252,-0.1231,-0.1299,-0.1284,-0.1289,-0.129,-0.1312,-0.1321,-0.1329,-0.122,-0.122,-0.1219,0,0,-0.0989,-0.1008,-0.1031,-0.1044,-0.1065,-0.1074,-0.1082,-0.1101,-0.1118,-0.1158,-0.1178,-0.122,-0.126,-0.1287,-0.1304,-0.1368,-0.1344,-0.1385,-0.1414,-0.1436,-0.1444,-0.145,-0.1433,-0.1438,-0.1382,-0.1382,-0.1383,0,-0.0995,-0.1022,-0.1037,-0.106,-0.1074,-0.1086,-0.1106,-0.1128,-0.1161,-0.1183,-0.1183,-0.1272,-0.1288,-0.1348,-0.1379,-0.1384,-0.1381,-0.137,-0.1443,-0.145,-0.1456,-0.1437,-0.1441,-0.1385,-0.1385,-0.1384,-0.1384,0,-0.1023,-0.1048,-0.1062,-0.1103,-0.112,-0.1135,-0.1164,-0.1195,-0.1219,-0.1243,-0.1308,-0.1335,-0.1386,-0.1405,-0.1411,-0.1474,-0.1452,-0.1452,-0.1411,-0.1467,-0.1444,-0.1448,-0.1388,-0.1387,-0.1387,-0.1386,0,0,-0.1014,-0.1071,-0.1076,-0.1098,-0.1138,-0.1152,-0.1203,-0.1244,-0.1283,-0.1325,-0.1372,-0.1439,-0.1456,-0.1478,-0.1494,-0.1514,-0.155,-0.1505,-0.1505,-0.1471,-0.1576,-0.1458,-0.1451,-0.1563,-0.1564,-0.1566,-0.1535,0,-0.1027,-0.1074,-0.11,-0.1145,-0.1167,-0.1198,-0.1244,-0.1288,-0.1328,-0.1383,-0.1418,-0.1477,-0.1483,-0.1511,-0.1537,-0.1553,-0.1566,-0.1556,-0.1541,-0.154,-0.1415,-0.1454,-0.157,-0.1538,-0.1539,-0.1539,-0.154,0,-0.1031,-0.1064,-0.1108,-0.1162,-0.1176,-0.1213,-0.1278,-0.132,-0.1397,-0.1425,-0.1485,-0.1521,-0.1576,-0.1567,-0.1606,-0.1601,-0.16,-0.1596,-0.1595,-0.1476,-0.1431,-0.1477,-0.1547,-0.1546,-0.1545,-0.1545,-0.1545,0,-0.0996,-0.106,-0.1096,-0.1115,-0.1187,-0.1219,-0.1263,-0.1338,-0.1366,-0.1461,-0.1484,-0.1561,-0.1587,-0.1614,-0.162,-0.1624,-0.1636,-0.1634,-0.152,-0.151,-0.1606,-0.16,-0.1662,-0.1662,-0.1662,-0.1662,-0.1662,0,-0.0976,-0.1006,-0.1089,-0.1106,-0.1148,-0.1211,-0.1263,-0.1316,-0.1385,-0.1412,-0.1507,-0.1524,-0.1604,-0.1622,-0.1628,-0.1572,-0.1642,-0.1525,-0.1502,-0.1621,-0.1617,-0.1607,-0.1601,-0.1661,-0.1661,-0.1662,-0.1662,0,-0.0922,-0.0979,-0.1019,-0.1104,-0.1128,-0.1161,-0.1234,-0.1264,-0.1347,-0.138,-0.1409,-0.1499,-0.1519,-0.1562,-0.1594,-0.1553,-0.1533,-0.1498,-0.1599,-0.1582,-0.1386,-0.1383,-0.1362,-0.1358,-0.1354,-0.1351,-0.1349,0,-0.0899,-0.0917,-0.0997,-0.1016,-0.1055,-0.1113,-0.1137,-0.1225,-0.1249,-0.134,-0.1336,-0.1401,-0.1445,-0.1388,-0.1452,-0.1439,-0.1432,-0.1408,-0.1423,-0.1379,-0.136,-0.1362,-0.1364,-0.1343,-0.1342,-0.1341,-0.134,0,-0.0846,-0.0881,-0.0914,-0.0948,-0.0979,-0.1007,-0.1056,-0.1061,-0.1151,-0.1225,-0.124,-0.1266,-0.1276,-0.131,-0.1308,-0.1304,-0.142,-0.137,-0.1378,-0.1392,-0.1356,-0.134,-0.1346,-0.1328,-0.1329,-0.1331,-0.1331,0,-0.0802,-0.0807,-0.0847,-0.0868,-0.09,-0.0899,-0.0938,-0.0965,-0.0997,-0.1104,-0.11,-0.1174,-0.1252,-0.1237,-0.1235,-0.1221,-0.1209,-0.1184,-0.1201,-0.1215,-0.1185,-0.1118,-0.0995,0,0,0,0,0,-0.075,-0.0748,-0.0763,-0.0778,-0.0804,-0.082,-0.0877,-0.0922,-0.1003,-0.0976,-0.104,-0.105,-0.1063,-0.1111,-0.1066,-0.1161,-0.1209,-0.1103,-0.1187,-0.1259,-0.1273,-0.1252,0,0,0,0,0,0,-0.0715,-0.0731,-0.0733,-0.0694,-0.0688,-0.07,-0.0736,-0.0792,-0.0796,-0.0891,-0.0909,-0.0975,-0.1009,-0.1066,-0.1041,-0.105,-0.108,-0.1149,-0.1146,-0.1251,-0.1264,-0.1275,-0.1258,0,0,0,0,0]},{"header":{"parameterUnit":"m.s-1","parameterCategory":2,"la1":30.2991,"la2":30.254,"lo1":-89.0895,"lo2":-89.0444,"dy":0.0017,"dx":0.0017,"nx":28,"ny":28,"refTime":"2023-08-25T03:00:00:Z","depth":"4","parameterNumber":3,"parameterNumberName":"V-component_of_CURRENTS"},"data":[0,0,0,0,0,0,0,0,0,0,0,0,0,0,0,0,0,0,0,0,0,0,0,0,0,0,0,0,0,0,0,0,0,0,0,0,0,0,0,0,0,0,0,0,0,0,0,0,0,0,0,0,0,0,0,0,0,0,-0.0236,-0.0236,0,-0.0236,-0.0235,-0.0235,-0.0221,-0.022,-0.022,-0.022,-0.0188,-0.0188,-0.0187,0,0,0,0,0,0,0,0,0,0,0,0,0,-0.0245,-0.0245,-0.0236,-0.0236,-0.0236,-0.0236,-0.0235,-0.0235,-0.0221,-0.022,-0.022,-0.022,-0.0189,-0.0188,-0.0187,0,0,0,0,0,0,0,0,0,0,0,0,0,-0.0242,-0.0245,-0.0236,-0.0229,-0.0229,-0.0236,-0.0235,-0.0235,-0.0221,-0.022,-0.022,-0.0219,-0.0189,-0.0188,-0.0187,-0.0192,0,0,-0.0185,-0.0184,0,0,0,0,0,0,0,0,-0.0242,-0.0242,-0.023,-0.023,-0.0229,-0.0228,-0.0227,-0.022,-0.0221,-0.0223,-0.022,-0.0219,-0.02,-0.0198,-0.0198,-0.0191,-0.0189,-0.0185,-0.0184,-0.0184,-0.0184,0,0,0,0,0,0,0,-0.0242,-0.0242,-0.0235,-0.023,-0.023,-0.0233,-0.0232,-0.0226,-0.0213,-0.0223,-0.0222,-0.0223,-0.0199,-0.0199,-0.0198,-0.0189,-0.0185,-0.0184,-0.0183,-0.0183,-0.0198,-0.0199,0,0,0,0,0,0,-0.0243,-0.0242,-0.0235,-0.0235,-0.0235,-0.0234,-0.0232,-0.0229,-0.0214,-0.0212,-0.0224,-0.0222,-0.0201,-0.0198,-0.0196,-0.0221,-0.0184,-0.0183,-0.0183,-0.0198,-0.0199,-0.02,0,0,0,0,0,0,-0.0243,-0.0242,-0.0235,-0.0239,-0.0239,-0.0234,-0.023,-0.0229,-0.0231,-0.0215,-0.0212,-0.0227,-0.02,-0.0197,-0.0202,-0.0218,-0.0183,-0.0182,-0.0197,-0.0198,-0.0199,-0.0257,0,0,0,0,0,0,-0.0243,-0.0242,-0.0244,-0.0239,-0.0239,-0.0247,-0.0231,-0.0229,-0.0232,-0.0231,-0.0217,-0.0213,-0.02,-0.0203,-0.0201,-0.0217,-0.0181,-0.0195,-0.0197,-0.0199,-0.0254,-0.026,-0.0265,0,0,0,0,0,-0.0244,-0.0251,-0.0244,-0.0243,-0.0239,-0.0248,-0.0248,-0.0243,-0.0233,-0.0241,-0.0233,-0.0214,-0.0212,-0.0203,-0.02,-0.0216,-0.0195,-0.0197,-0.0199,-0.0251,-0.0259,-0.0265,0,0,0,0,0,0,-0.0261,-0.025,-0.0242,-0.0246,-0.0249,-0.0246,-0.0253,-0.0247,-0.0247,-0.0244,-0.0226,-0.0223,-0.0234,-0.0217,-0.0208,-0.0226,-0.02,-0.0201,-0.0241,-0.0247,-0.0253,-0.0249,-0.0181,0,0,0,0,0,-0.0264,-0.0263,-0.0257,-0.0263,-0.0264,-0.0258,-0.0261,-0.0258,-0.0256,-0.0255,-0.025,-0.0242,-0.024,-0.0237,-0.0235,-0.0243,-0.0198,-0.0251,-0.0257,-0.0262,-0.0257,-0.0206,-0.0206,-0.0206,-0.0206,-0.0206,0,0,-0.0275,-0.0268,-0.0269,-0.0267,-0.0266,-0.0279,-0.0259,-0.0267,-0.028,-0.0252,-0.0271,-0.0264,-0.0248,-0.0262,-0.0264,-0.0249,-0.0238,-0.0264,-0.0269,-0.0261,-0.0208,-0.0208,-0.0208,-0.0208,-0.0207,-0.0207,0,0,-0.0299,-0.0287,-0.0296,-0.0299,-0.03,-0.0298,-0.0302,-0.0304,-0.0305,-0.0321,-0.0305,-0.0306,-0.0309,-0.0301,-0.0295,-0.0328,-0.0273,-0.0331,-0.0354,-0.0305,-0.0304,-0.0303,-0.0243,-0.0235,-0.0331,-0.0331,-0.0331,0,-0.0313,-0.0319,-0.0303,-0.0315,-0.0324,-0.0309,-0.0328,-0.033,-0.0337,-0.0337,-0.0335,-0.0336,-0.0326,-0.0329,-0.0345,-0.0341,-0.0297,-0.033,-0.0311,-0.0309,-0.0306,-0.0245,-0.0236,-0.0334,-0.0334,-0.0333,-0.0333,0,-0.0342,-0.0351,-0.0359,-0.0366,-0.0374,-0.0389,-0.0387,-0.0395,-0.0395,-0.0392,-0.04,-0.039,-0.0382,-0.0389,-0.038,-0.0367,-0.0336,-0.0326,-0.0291,-0.031,-0.0244,-0.0234,-0.0338,-0.0337,-0.0336,-0.0336,0,0,-0.0363,-0.0377,-0.038,-0.0396,-0.0401,-0.0414,-0.0429,-0.0436,-0.0443,-0.0447,-0.0451,-0.0457,-0.0438,-0.043,-0.0416,-0.0384,-0.0337,-0.0353,-0.0349,-0.0288,-0.0213,-0.0203,-0.019,-0.0319,-0.0318,-0.0317,-0.0173,0,-0.0392,-0.0428,-0.0423,-0.0465,-0.0485,-0.0475,-0.0494,-0.0496,-0.0491,-0.0493,-0.0468,-0.0471,-0.0456,-0.0454,-0.0419,-0.0366,-0.0313,-0.0376,-0.0208,-0.0203,-0.0188,-0.018,-0.0313,-0.0165,-0.0162,-0.0161,-0.0159,0,-0.0421,-0.0441,-0.0487,-0.0515,-0.0523,-0.0546,-0.0561,-0.0574,-0.0558,-0.055,-0.0529,-0.0502,-0.0469,-0.045,-0.034,-0.0379,-0.0294,-0.0244,-0.0237,-0.0198,-0.0174,-0.0143,-0.014,-0.0142,-0.0143,-0.0144,-0.0145,0,-0.0449,-0.0485,-0.0526,-0.0538,-0.0568,-0.0585,-0.0599,-0.0595,-0.0606,-0.0579,-0.0576,-0.052,-0.0492,-0.0397,-0.0287,-0.0308,-0.0147,-0.0156,-0.0056,-0.0053,-0.0079,-0.0082,-0.0047,-0.0047,-0.0047,-0.0048,-0.0048,0,-0.0479,-0.0513,-0.0547,-0.0571,-0.0622,-0.0625,-0.0663,-0.066,-0.0655,-0.0659,-0.0608,-0.0583,-0.0476,-0.0374,-0.0275,-0.013,-0.0121,-0.0049,-0.0016,-0.0108,-0.0115,-0.0071,-0.0076,-0.0042,-0.0043,-0.0044,-0.0045,0,-0.0504,-0.0528,-0.058,-0.0621,-0.064,-0.0678,-0.0713,-0.073,-0.0719,-0.0718,-0.0708,-0.0618,-0.0479,-0.035,-0.0176,-0.0112,0.0022,0.0086,-0.0002,0.0022,0.0081,0.0071,0.0194,0.0195,0.0197,0.0198,0.0199,0,-0.0519,-0.0551,-0.0619,-0.0655,-0.0679,-0.0729,-0.076,-0.0766,-0.077,-0.0731,-0.0721,-0.0594,-0.0512,-0.0244,-0.0123,0.009,0.0115,0.0179,0.0105,0.0085,0.0106,0.0094,0.0083,0.0201,0.0201,0.0202,0.0202,0,-0.0546,-0.0575,-0.0615,-0.0686,-0.0736,-0.0784,-0.0815,-0.0818,-0.0807,-0.0809,-0.0694,-0.0567,-0.0398,-0.0216,-0.0035,0.0104,0.0116,0.0193,0.019,0.0121,0.0096,0.0112,0.0099,0.0207,0.0206,0.0205,0.0205,0,-0.0561,-0.0597,-0.0648,-0.0709,-0.0771,-0.0802,-0.0822,-0.0797,-0.0793,-0.0737,-0.0691,-0.0523,-0.0425,-0.0204,-0.0049,0.0097,0.0109,0.0119,0.012,0.0117,0.0033,-0.0014,0.0103,0,0,0,0,0,-0.0566,-0.0604,-0.0662,-0.0724,-0.078,-0.0811,-0.084,-0.0844,-0.0832,-0.0745,-0.0712,-0.0544,-0.031,-0.0209,-0.0055,-0.0051,0.0114,0.0126,0.0122,0.0232,0.0227,0.014,0,0,0,0,0,0,-0.0573,-0.0628,-0.0657,-0.0715,-0.0754,-0.0808,-0.0823,-0.0817,-0.0751,-0.0719,-0.0572,-0.0532,-0.0283,-0.0381,-0.0055,-0.0017,-0.0008,0.0232,0.0234,0.0235,0.023,0.0226,0.0135,0,0,0,0,0]}]]